owner,sensor,date,latitude,longitude,vertical_datum,direction_of_sea_water_velocity,sea_water_speed,upward_sea_water_velocity,qcFlag 
TABS,ioos:station:wmo:42050:1,1998-05-01T00:00:00Z,28.8425,-94.2433,2.0,263.585554,23.99016465,-99999.0,'11111222,11111222,99999999' 
TABS,ioos:station:wmo:42050:1,1998-05-01T00:30:00Z,28.8425,-94.2433,2.0,259.2905492,22.44084223,-99999.0,'11111222,11111222,99999999' 
TABS,ioos:station:wmo:42050:1,1998-05-01T01:00:00Z,28.8425,-94.2433,2.0,260.9354104,20.81999039,-99999.0,'11111222,11111222,99999999' 
TABS,ioos:station:wmo:42050:1,1998-05-01T01:30:00Z,28.8425,-94.2433,2.0,259.8761193,16.95395234,-99999.0,'11111222,11111222,99999999' 
TABS,ioos:station:wmo:42050:1,1998-05-01T02:00:00Z,28.8425,-94.2433,2.0,251.1973986,14.79976351,-99999.0,'11111222,11111222,99999999' 
TABS,ioos:station:wmo:42050:1,1998-05-01T02:30:00Z,28.8425,-94.2433,2.0,239.035895,17.37623665,-99999.0,'11111222,11111222,99999999' 
TABS,ioos:station:wmo:42050:1,1998-05-01T03:00:00Z,28.8425,-94.2433,2.0,233.1242754,20.8640001,-99999.0,'11111222,11111222,99999999' 
TABS,ioos:station:wmo:42050:1,1998-05-01T03:30:00Z,28.8425,-94.2433,2.0,224.4049412,20.43648698,-99999.0,'11111222,11111222,99999999' 
TABS,ioos:station:wmo:42050:1,1998-05-01T04:00:00Z,28.8425,-94.2433,2.0,236.9802944,21.32413656,-99999.0,'11111222,11111222,99999999' 
TABS,ioos:station:wmo:42050:1,1998-05-01T04:30:00Z,28.8425,-94.2433,2.0,230.6622433,23.50579503,-99999.0,'11111222,11111222,99999999' 
TABS,ioos:station:wmo:42050:1,1998-05-01T05:00:00Z,28.8425,-94.2433,2.0,245.4951947,25.87014689,-99999.0,'11111222,11111222,99999999' 
TABS,ioos:station:wmo:42050:1,1998-05-01T05:30:00Z,28.8425,-94.2433,2.0,239.5291621,23.5064672,-99999.0,'11111222,11111222,99999999' 
TABS,ioos:station:wmo:42050:1,1998-05-01T06:00:00Z,28.8425,-94.2433,2.0,242.3112899,20.53104966,-99999.0,'11111222,11111222,99999999' 
TABS,ioos:station:wmo:42050:1,1998-05-01T06:30:00Z,28.8425,-94.2433,2.0,248.789286,21.42109708,-99999.0,'11111222,11111222,99999999' 
TABS,ioos:station:wmo:42050:1,1998-05-01T07:00:00Z,28.8425,-94.2433,2.0,256.5449801,28.19379364,-99999.0,'11111222,11111222,99999999' 
TABS,ioos:station:wmo:42050:1,1998-05-01T07:30:00Z,28.8425,-94.2433,2.0,258.8221008,24.6067572,-99999.0,'11111222,11111222,99999999' 
TABS,ioos:station:wmo:42050:1,1998-05-01T08:00:00Z,28.8425,-94.2433,2.0,270.7592593,22.65198667,-99999.0,'11111222,11111222,99999999' 
TABS,ioos:station:wmo:42050:1,1998-05-01T08:30:00Z,28.8425,-94.2433,2.0,273.8662226,22.10028507,-99999.0,'11111222,11111222,99999999' 
TABS,ioos:station:wmo:42050:1,1998-05-01T09:00:00Z,28.8425,-94.2433,2.0,281.1405266,18.52913382,-99999.0,'11111222,11111222,99999999' 
TABS,ioos:station:wmo:42050:1,1998-05-01T09:30:00Z,28.8425,-94.2433,2.0,291.8138328,17.65405619,-99999.0,'11111222,11111222,99999999' 
TABS,ioos:station:wmo:42050:1,1998-05-01T10:00:00Z,28.8425,-94.2433,2.0,294.3622488,17.33339551,-99999.0,'11111222,11111222,99999999' 
TABS,ioos:station:wmo:42050:1,1998-05-01T10:30:00Z,28.8425,-94.2433,2.0,304.7134375,14.13601429,-99999.0,'11111222,11111222,99999999' 
TABS,ioos:station:wmo:42050:1,1998-05-01T11:00:00Z,28.8425,-94.2433,2.0,311.6117666,10.76684726,-99999.0,'11111222,11111222,99999999' 
TABS,ioos:station:wmo:42050:1,1998-05-01T11:30:00Z,28.8425,-94.2433,2.0,318.6351975,9.926535146,-99999.0,'11133222,11111222,99999999' 
TABS,ioos:station:wmo:42050:1,1998-05-01T12:00:00Z,28.8425,-94.2433,2.0,320.9961453,8.055588123,-99999.0,'11133222,11111222,99999999' 
TABS,ioos:station:wmo:42050:1,1998-05-01T12:30:00Z,28.8425,-94.2433,2.0,331.628938,4.398295124,-99999.0,'11133222,11111222,99999999' 
TABS,ioos:station:wmo:42050:1,1998-05-01T13:00:00Z,28.8425,-94.2433,2.0,308.6132136,1.906882272,-99999.0,'11133222,11111222,99999999' 
TABS,ioos:station:wmo:42050:1,1998-05-01T13:30:00Z,28.8425,-94.2433,2.0,296.56541,0.670820393,-99999.0,'11133222,11111222,99999999' 
TABS,ioos:station:wmo:42050:1,1998-05-01T14:00:00Z,28.8425,-94.2433,2.0,56.01391236,1.073359213,-99999.0,'11133222,11111222,99999999' 
TABS,ioos:station:wmo:42050:1,1998-05-01T14:30:00Z,28.8425,-94.2433,2.0,26.56519952,0.670820393,-99999.0,'11133222,11111222,99999999' 
TABS,ioos:station:wmo:42050:1,1998-05-01T15:00:00Z,28.8425,-94.2433,2.0,251.3717595,0.939201789,-99999.0,'11133222,11111222,99999999' 
TABS,ioos:station:wmo:42050:1,1998-05-01T15:30:00Z,28.8425,-94.2433,2.0,194.1492325,1.227232659,-99999.0,'11133222,11111222,99999999' 
TABS,ioos:station:wmo:42050:1,1998-05-01T16:00:00Z,28.8425,-94.2433,2.0,179.9997895,1.19,-99999.0,'11133222,11111222,99999999' 
TABS,ioos:station:wmo:42050:1,1998-05-01T16:30:00Z,28.8425,-94.2433,2.0,198.5306678,1.887882412,-99999.0,'11133222,11111222,99999999' 
TABS,ioos:station:wmo:42050:1,1998-05-01T17:00:00Z,28.8425,-94.2433,2.0,163.3711672,3.110064308,-99999.0,'11133222,11111222,99999999' 
TABS,ioos:station:wmo:42050:1,1998-05-01T17:30:00Z,28.8425,-94.2433,2.0,156.0571958,5.864639801,-99999.0,'11133222,11111222,99999999' 
TABS,ioos:station:wmo:42050:1,1998-05-01T18:00:00Z,28.8425,-94.2433,2.0,188.3332575,12.35040485,-99999.0,'11111222,11111222,99999999' 
TABS,ioos:station:wmo:42050:1,1998-05-01T18:30:00Z,28.8425,-94.2433,2.0,192.8600084,28.12550444,-99999.0,'11111222,11111222,99999999' 
TABS,ioos:station:wmo:42050:1,1998-05-01T19:00:00Z,28.8425,-94.2433,2.0,198.2240754,26.66766769,-99999.0,'11111222,11111222,99999999' 
TABS,ioos:station:wmo:42050:1,1998-05-01T19:30:00Z,28.8425,-94.2433,2.0,196.9524471,25.55026614,-99999.0,'11111222,11111222,99999999' 
TABS,ioos:station:wmo:42050:1,1998-05-01T20:00:00Z,28.8425,-94.2433,2.0,205.2689624,23.73075009,-99999.0,'11111222,11111222,99999999' 
TABS,ioos:station:wmo:42050:1,1998-05-01T20:30:00Z,28.8425,-94.2433,2.0,204.2314753,26.14342173,-99999.0,'11111222,11111222,99999999' 
TABS,ioos:station:wmo:42050:1,1998-05-01T21:00:00Z,28.8425,-94.2433,2.0,205.5817277,23.45980605,-99999.0,'11111222,11111222,99999999' 
TABS,ioos:station:wmo:42050:1,1998-05-01T21:30:00Z,28.8425,-94.2433,2.0,212.6783503,23.72545047,-99999.0,'11111222,11111222,99999999' 
TABS,ioos:station:wmo:42050:1,1998-05-01T22:00:00Z,28.8425,-94.2433,2.0,213.8813576,24.05470848,-99999.0,'11111222,11111222,99999999' 
TABS,ioos:station:wmo:42050:1,1998-05-01T22:30:00Z,28.8425,-94.2433,2.0,214.5536833,22.07402999,-99999.0,'11111222,11111222,99999999' 
TABS,ioos:station:wmo:42050:1,1998-05-01T23:00:00Z,28.8425,-94.2433,2.0,217.1865861,21.69033195,-99999.0,'11111222,11111222,99999999' 
TABS,ioos:station:wmo:42050:1,1998-05-01T23:30:00Z,28.8425,-94.2433,2.0,216.8750933,20.8640001,-99999.0,'11111222,11111222,99999999' 
TABS,ioos:station:wmo:42050:1,1998-05-02T00:00:00Z,28.8425,-94.2433,2.0,220.2827733,23.04487796,-99999.0,'11111222,11111222,99999999' 
TABS,ioos:station:wmo:42050:1,1998-05-02T00:30:00Z,28.8425,-94.2433,2.0,223.2522236,20.86935552,-99999.0,'11111222,11111222,99999999' 
TABS,ioos:station:wmo:42050:1,1998-05-02T01:00:00Z,28.8425,-94.2433,2.0,224.9996843,22.33043215,-99999.0,'11111222,11111222,99999999' 
TABS,ioos:station:wmo:42050:1,1998-05-02T01:30:00Z,28.8425,-94.2433,2.0,224.4127837,20.01924324,-99999.0,'11111222,11111222,99999999' 
TABS,ioos:station:wmo:42050:1,1998-05-02T02:00:00Z,28.8425,-94.2433,2.0,235.063691,19.2609709,-99999.0,'11111222,11111222,99999999' 
TABS,ioos:station:wmo:42050:1,1998-05-02T02:30:00Z,28.8425,-94.2433,2.0,228.0701371,23.63007617,-99999.0,'11111222,11111222,99999999' 
TABS,ioos:station:wmo:42050:1,1998-05-02T03:00:00Z,28.8425,-94.2433,2.0,228.597576,23.43728653,-99999.0,'11111222,11111222,99999999' 
TABS,ioos:station:wmo:42050:1,1998-05-02T03:30:00Z,28.8425,-94.2433,2.0,232.4310749,24.43781701,-99999.0,'11111222,11111222,99999999' 
TABS,ioos:station:wmo:42050:1,1998-05-02T04:00:00Z,28.8425,-94.2433,2.0,233.1345751,23.83600008,-99999.0,'11111222,11111222,99999999' 
TABS,ioos:station:wmo:42050:1,1998-05-02T04:30:00Z,28.8425,-94.2433,2.0,234.9990391,21.82761554,-99999.0,'11111222,11111222,99999999' 
TABS,ioos:station:wmo:42050:1,1998-05-02T05:00:00Z,28.8425,-94.2433,2.0,238.8849764,20.1837385,-99999.0,'11111222,11111222,99999999' 
TABS,ioos:station:wmo:42050:1,1998-05-02T05:30:00Z,28.8425,-94.2433,2.0,243.8270198,19.58841494,-99999.0,'11111222,11111222,99999999' 
TABS,ioos:station:wmo:42050:1,1998-05-02T06:00:00Z,28.8425,-94.2433,2.0,244.2811207,17.85918811,-99999.0,'11111222,11111222,99999999' 
TABS,ioos:station:wmo:42050:1,1998-05-02T06:30:00Z,28.8425,-94.2433,2.0,256.4893346,15.32404646,-99999.0,'11111222,11111222,99999999' 
TABS,ioos:station:wmo:42050:1,1998-05-02T07:00:00Z,28.8425,-94.2433,2.0,265.7295554,11.95317949,-99999.0,'11111222,11111222,99999999' 
TABS,ioos:station:wmo:42050:1,1998-05-02T07:30:00Z,28.8425,-94.2433,2.0,281.8737451,11.56748892,-99999.0,'11111222,11111222,99999999' 
TABS,ioos:station:wmo:42050:1,1998-05-02T08:00:00Z,28.8425,-94.2433,2.0,300.964105,8.688118323,-99999.0,'11133222,11111222,99999999' 
TABS,ioos:station:wmo:42050:1,1998-05-02T08:30:00Z,28.8425,-94.2433,2.0,330.2356892,7.211379896,-99999.0,'11133222,11111222,99999999' 
TABS,ioos:station:wmo:42050:1,1998-05-02T09:00:00Z,28.8425,-94.2433,2.0,354.5253393,6.288688257,-99999.0,'11133222,11111222,99999999' 
TABS,ioos:station:wmo:42050:1,1998-05-02T09:30:00Z,28.8425,-94.2433,2.0,11.77167185,7.303601851,-99999.0,'11133222,11111222,99999999' 
TABS,ioos:station:wmo:42050:1,1998-05-02T10:00:00Z,28.8425,-94.2433,2.0,23.94280419,5.864639801,-99999.0,'11133222,11111222,99999999' 
TABS,ioos:station:wmo:42050:1,1998-05-02T10:30:00Z,28.8425,-94.2433,2.0,57.2717952,4.956944623,-99999.0,'11133222,11111222,99999999' 
TABS,ioos:station:wmo:42050:1,1998-05-02T11:00:00Z,28.8425,-94.2433,2.0,54.47106417,7.692106344,-99999.0,'11133222,11111222,99999999' 
TABS,ioos:station:wmo:42050:1,1998-05-02T11:30:00Z,28.8425,-94.2433,2.0,56.77156662,10.32885279,-99999.0,'11111222,11111222,99999999' 
TABS,ioos:station:wmo:42050:1,1998-05-02T12:00:00Z,28.8425,-94.2433,2.0,71.57988789,12.24750179,-99999.0,'11111222,11111222,99999999' 
TABS,ioos:station:wmo:42050:1,1998-05-02T12:30:00Z,28.8425,-94.2433,2.0,88.44202565,11.03407903,-99999.0,'11111222,11111222,99999999' 
TABS,ioos:station:wmo:42050:1,1998-05-02T13:00:00Z,28.8425,-94.2433,2.0,96.95181438,12.31050365,-99999.0,'11111222,11111222,99999999' 
TABS,ioos:station:wmo:42050:1,1998-05-02T13:30:00Z,28.8425,-94.2433,2.0,114.762574,12.79664018,-99999.0,'11111222,11111222,99999999' 
TABS,ioos:station:wmo:42050:1,1998-05-02T14:00:00Z,28.8425,-94.2433,2.0,134.2565031,15.80516688,-99999.0,'11111222,11111222,99999999' 
TABS,ioos:station:wmo:42050:1,1998-05-02T14:30:00Z,28.8425,-94.2433,2.0,143.1171589,17.87800045,-99999.0,'11111222,11111222,99999999' 
TABS,ioos:station:wmo:42050:1,1998-05-02T15:00:00Z,28.8425,-94.2433,2.0,154.2090188,19.85809659,-99999.0,'11111222,11111222,99999999' 
TABS,ioos:station:wmo:42050:1,1998-05-02T15:30:00Z,28.8425,-94.2433,2.0,164.3528254,23.21012925,-99999.0,'11111222,11111222,99999999' 
TABS,ioos:station:wmo:42050:1,1998-05-02T16:00:00Z,28.8425,-94.2433,2.0,171.0019048,24.74450444,-99999.0,'11111222,11111222,99999999' 
TABS,ioos:station:wmo:42050:1,1998-05-02T16:30:00Z,28.8425,-94.2433,2.0,174.36912,24.25704022,-99999.0,'11111222,11111222,99999999' 
TABS,ioos:station:wmo:42050:1,1998-05-02T17:00:00Z,28.8425,-94.2433,2.0,182.381563,28.63473765,-99999.0,'11111222,11111222,99999999' 
TABS,ioos:station:wmo:42050:1,1998-05-02T17:30:00Z,28.8425,-94.2433,2.0,188.1298729,31.60767312,-99999.0,'11111222,11111222,99999999' 
TABS,ioos:station:wmo:42050:1,1998-05-02T18:00:00Z,28.8425,-94.2433,2.0,190.4491193,31.20755838,-99999.0,'11111222,11111222,99999999' 
TABS,ioos:station:wmo:42050:1,1998-05-02T18:30:00Z,28.8425,-94.2433,2.0,194.831415,31.44777417,-99999.0,'11111222,11111222,99999999' 
TABS,ioos:station:wmo:42050:1,1998-05-02T19:00:00Z,28.8425,-94.2433,2.0,198.0757276,29.77975319,-99999.0,'11111222,11111222,99999999' 
TABS,ioos:station:wmo:42050:1,1998-05-02T19:30:00Z,28.8425,-94.2433,2.0,203.1147368,24.30090739,-99999.0,'11111222,11111222,99999999' 
TABS,ioos:station:wmo:42050:1,1998-05-02T20:00:00Z,28.8425,-94.2433,2.0,203.8908261,22.81484604,-99999.0,'11111222,11111222,99999999' 
TABS,ioos:station:wmo:42050:1,1998-05-02T20:30:00Z,28.8425,-94.2433,2.0,199.2954999,18.94418116,-99999.0,'11111222,11111222,99999999' 
TABS,ioos:station:wmo:42050:1,1998-05-02T21:00:00Z,28.8425,-94.2433,2.0,215.9244267,21.33890344,-99999.0,'11111222,11111222,99999999' 
TABS,ioos:station:wmo:42050:1,1998-05-02T21:30:00Z,28.8425,-94.2433,2.0,208.1348544,14.52647927,-99999.0,'11111222,11111222,99999999' 
TABS,ioos:station:wmo:42050:1,1998-05-02T22:00:00Z,28.8425,-94.2433,2.0,214.8702809,11.98129375,-99999.0,'11111222,11111222,99999999' 
TABS,ioos:station:wmo:42050:1,1998-05-02T22:30:00Z,28.8425,-94.2433,2.0,219.609028,11.21481609,-99999.0,'11111222,11111222,99999999' 
TABS,ioos:station:wmo:42050:1,1998-05-02T23:00:00Z,28.8425,-94.2433,2.0,231.8121137,10.61080581,-99999.0,'11111222,11111222,99999999' 
TABS,ioos:station:wmo:42050:1,1998-05-02T23:30:00Z,28.8425,-94.2433,2.0,239.319359,11.09266424,-99999.0,'11111222,11111222,99999999' 
TABS,ioos:station:wmo:42050:1,1998-05-03T00:00:00Z,28.8425,-94.2433,2.0,249.0910929,10.8440675,-99999.0,'11111222,11111222,99999999' 
TABS,ioos:station:wmo:42050:1,1998-05-03T00:30:00Z,28.8425,-94.2433,2.0,253.6070149,10.55922819,-99999.0,'11111222,11111222,99999999' 
TABS,ioos:station:wmo:42050:1,1998-05-03T01:00:00Z,28.8425,-94.2433,2.0,267.3791813,13.12372279,-99999.0,'11111222,11111222,99999999' 
TABS,ioos:station:wmo:42050:1,1998-05-03T01:30:00Z,28.8425,-94.2433,2.0,267.3179022,12.82404382,-99999.0,'11111222,11111222,99999999' 
TABS,ioos:station:wmo:42050:1,1998-05-03T02:00:00Z,28.8425,-94.2433,2.0,268.7180111,13.41335528,-99999.0,'11111222,11111222,99999999' 
TABS,ioos:station:wmo:42050:1,1998-05-03T02:30:00Z,28.8425,-94.2433,2.0,275.827542,14.67583388,-99999.0,'11111222,11111222,99999999' 
TABS,ioos:station:wmo:42050:1,1998-05-03T03:00:00Z,28.8425,-94.2433,2.0,277.9550972,12.93445785,-99999.0,'11111222,11111222,99999999' 
TABS,ioos:station:wmo:42050:1,1998-05-03T03:30:00Z,28.8425,-94.2433,2.0,287.1770439,13.10447633,-99999.0,'11111222,11111222,99999999' 
TABS,ioos:station:wmo:42050:1,1998-05-03T04:00:00Z,28.8425,-94.2433,2.0,294.1270109,12.40351966,-99999.0,'11111222,11111222,99999999' 
TABS,ioos:station:wmo:42050:1,1998-05-03T04:30:00Z,28.8425,-94.2433,2.0,309.6096593,11.21481609,-99999.0,'11111222,11111222,99999999' 
TABS,ioos:station:wmo:42050:1,1998-05-03T05:00:00Z,28.8425,-94.2433,2.0,323.1084214,10.42800077,-99999.0,'11111222,11111222,99999999' 
TABS,ioos:station:wmo:42050:1,1998-05-03T05:30:00Z,28.8425,-94.2433,2.0,340.9705616,9.139474821,-99999.0,'11133222,11111222,99999999' 
TABS,ioos:station:wmo:42050:1,1998-05-03T06:00:00Z,28.8425,-94.2433,2.0,0.000210459,8.94,-99999.0,'11133222,11111222,99999999' 
TABS,ioos:station:wmo:42050:1,1998-05-03T06:30:00Z,28.8425,-94.2433,2.0,13.22178267,10.4058301,-99999.0,'11111222,11111222,99999999' 
TABS,ioos:station:wmo:42050:1,1998-05-03T07:00:00Z,28.8425,-94.2433,2.0,31.3314835,8.019438883,-99999.0,'11133222,11111222,99999999' 
TABS,ioos:station:wmo:42050:1,1998-05-03T07:30:00Z,28.8425,-94.2433,2.0,34.27074318,7.938167295,-99999.0,'11133222,11111222,99999999' 
TABS,ioos:station:wmo:42050:1,1998-05-03T08:00:00Z,28.8425,-94.2433,2.0,52.64510062,6.378228594,-99999.0,'11133222,11111222,99999999' 
TABS,ioos:station:wmo:42050:1,1998-05-03T08:30:00Z,28.8425,-94.2433,2.0,70.97035116,9.139474821,-99999.0,'11133222,11111222,99999999' 
TABS,ioos:station:wmo:42050:1,1998-05-03T09:00:00Z,28.8425,-94.2433,2.0,94.79678775,7.175130661,-99999.0,'11133222,11111222,99999999' 
TABS,ioos:station:wmo:42050:1,1998-05-03T09:30:00Z,28.8425,-94.2433,2.0,95.22591519,6.587381877,-99999.0,'11133222,11111222,99999999' 
TABS,ioos:station:wmo:42050:1,1998-05-03T10:00:00Z,28.8425,-94.2433,2.0,100.2817627,6.667060822,-99999.0,'11133222,11111222,99999999' 
TABS,ioos:station:wmo:42050:1,1998-05-03T10:30:00Z,28.8425,-94.2433,2.0,128.9291734,9.962434441,-99999.0,'11133222,11111222,99999999' 
TABS,ioos:station:wmo:42050:1,1998-05-03T11:00:00Z,28.8425,-94.2433,2.0,135.9775413,12.43274708,-99999.0,'11111222,11111222,99999999' 
TABS,ioos:station:wmo:42050:1,1998-05-03T11:30:00Z,28.8425,-94.2433,2.0,141.6998707,14.42449306,-99999.0,'11111222,11111222,99999999' 
TABS,ioos:station:wmo:42050:1,1998-05-03T12:00:00Z,28.8425,-94.2433,2.0,145.3066394,18.85160205,-99999.0,'11111222,11111222,99999999' 
TABS,ioos:station:wmo:42050:1,1998-05-03T12:30:00Z,28.8425,-94.2433,2.0,150.8061749,23.20797277,-99999.0,'11111222,11111222,99999999' 
TABS,ioos:station:wmo:42050:1,1998-05-03T13:00:00Z,28.8425,-94.2433,2.0,147.6615709,21.1621549,-99999.0,'11111222,11111222,99999999' 
TABS,ioos:station:wmo:42050:1,1998-05-03T13:30:00Z,28.8425,-94.2433,2.0,158.6609437,20.47357809,-99999.0,'11111222,11111222,99999999' 
TABS,ioos:station:wmo:42050:1,1998-05-03T14:00:00Z,28.8425,-94.2433,2.0,166.1655931,19.94867915,-99999.0,'11111222,11111222,99999999' 
TABS,ioos:station:wmo:42050:1,1998-05-03T14:30:00Z,28.8425,-94.2433,2.0,169.5070619,16.36363346,-99999.0,'11111222,11111222,99999999' 
TABS,ioos:station:wmo:42050:1,1998-05-03T15:00:00Z,28.8425,-94.2433,2.0,176.5814937,14.92655687,-99999.0,'11111222,11111222,99999999' 
TABS,ioos:station:wmo:42050:1,1998-05-03T15:30:00Z,28.8425,-94.2433,2.0,181.2533235,13.71328188,-99999.0,'11111222,11111222,99999999' 
TABS,ioos:station:wmo:42050:1,1998-05-03T16:00:00Z,28.8425,-94.2433,2.0,181.3413627,12.8135124,-99999.0,'11111222,11111222,99999999' 
TABS,ioos:station:wmo:42050:1,1998-05-03T16:30:00Z,28.8425,-94.2433,2.0,186.9516039,12.31050365,-99999.0,'11111222,11111222,99999999' 
TABS,ioos:station:wmo:42050:1,1998-05-03T17:00:00Z,28.8425,-94.2433,2.0,203.0415109,12.95342812,-99999.0,'11111222,11111222,99999999' 
TABS,ioos:station:wmo:42050:1,1998-05-03T17:30:00Z,28.8425,-94.2433,2.0,207.7666089,12.79312315,-99999.0,'11111222,11111222,99999999' 
TABS,ioos:station:wmo:42050:1,1998-05-03T18:00:00Z,28.8425,-94.2433,2.0,213.7011555,13.96735122,-99999.0,'11111222,11111222,99999999' 
TABS,ioos:station:wmo:42050:1,1998-05-03T18:30:00Z,28.8425,-94.2433,2.0,211.1399122,16.70747138,-99999.0,'11111222,11111222,99999999' 
TABS,ioos:station:wmo:42050:1,1998-05-03T19:00:00Z,28.8425,-94.2433,2.0,218.5156452,18.65969989,-99999.0,'11111222,11111222,99999999' 
TABS,ioos:station:wmo:42050:1,1998-05-03T19:30:00Z,28.8425,-94.2433,2.0,222.66678,20.67172223,-99999.0,'11111222,11111222,99999999' 
TABS,ioos:station:wmo:42050:1,1998-05-03T20:00:00Z,28.8425,-94.2433,2.0,223.1990367,20.02808278,-99999.0,'11111222,11111222,99999999' 
TABS,ioos:station:wmo:42050:1,1998-05-03T20:30:00Z,28.8425,-94.2433,2.0,227.7259889,22.15044243,-99999.0,'11111222,11111222,99999999' 
TABS,ioos:station:wmo:42050:1,1998-05-03T21:00:00Z,28.8425,-94.2433,2.0,231.0704057,19.92486888,-99999.0,'11111222,11111222,99999999' 
TABS,ioos:station:wmo:42050:1,1998-05-03T21:30:00Z,28.8425,-94.2433,2.0,235.2453697,17.77011255,-99999.0,'11111222,11111222,99999999' 
TABS,ioos:station:wmo:42050:1,1998-05-03T22:00:00Z,28.8425,-94.2433,2.0,235.4945378,17.35277788,-99999.0,'11111222,11111222,99999999' 
TABS,ioos:station:wmo:42050:1,1998-05-03T22:30:00Z,28.8425,-94.2433,2.0,242.4568304,15.46242542,-99999.0,'11111222,11111222,99999999' 
TABS,ioos:station:wmo:42050:1,1998-05-03T23:00:00Z,28.8425,-94.2433,2.0,247.1501408,12.28394481,-99999.0,'11111222,11111222,99999999' 
TABS,ioos:station:wmo:42050:1,1998-05-03T23:30:00Z,28.8425,-94.2433,2.0,242.1153684,11.46065007,-99999.0,'11111222,11111222,99999999' 
TABS,ioos:station:wmo:42050:1,1998-05-04T00:00:00Z,28.8425,-94.2433,2.0,250.8400833,7.251682563,-99999.0,'11133222,11111222,99999999' 
TABS,ioos:station:wmo:42050:1,1998-05-04T00:30:00Z,28.8425,-94.2433,2.0,266.1599917,4.480055803,-99999.0,'11133222,11111222,99999999' 
TABS,ioos:station:wmo:42050:1,1998-05-04T01:00:00Z,28.8425,-94.2433,2.0,241.3769489,3.736642878,-99999.0,'11133222,11111222,99999999' 
TABS,ioos:station:wmo:42050:1,1998-05-04T01:30:00Z,28.8425,-94.2433,2.0,261.8311196,2.111421322,-99999.0,'11133222,11111222,99999999' 
TABS,ioos:station:wmo:42050:1,1998-05-04T02:00:00Z,28.8425,-94.2433,2.0,116.5649891,0.670820393,-99999.0,'11133222,11111222,99999999' 
TABS,ioos:station:wmo:42050:1,1998-05-04T02:30:00Z,28.8425,-94.2433,2.0,179.9997895,0.6,-99999.0,'11133222,11111222,99999999' 
TABS,ioos:station:wmo:42050:1,1998-05-04T03:00:00Z,28.8425,-94.2433,2.0,153.4348005,0.670820393,-99999.0,'11133222,11111222,99999999' 
TABS,ioos:station:wmo:42050:1,1998-05-04T03:30:00Z,28.8425,-94.2433,2.0,90.0,0.89,-99999.0,'11133222,11111222,99999999' 
TABS,ioos:station:wmo:42050:1,1998-05-04T04:00:00Z,28.8425,-94.2433,2.0,120.8504518,1.735569071,-99999.0,'11133222,11111222,99999999' 
TABS,ioos:station:wmo:42050:1,1998-05-04T04:30:00Z,28.8425,-94.2433,2.0,123.6160589,2.14946505,-99999.0,'11133222,11111222,99999999' 
TABS,ioos:station:wmo:42050:1,1998-05-04T05:00:00Z,28.8425,-94.2433,2.0,146.3837306,4.298930099,-99999.0,'11133222,11111222,99999999' 
TABS,ioos:station:wmo:42050:1,1998-05-04T05:30:00Z,28.8425,-94.2433,2.0,152.1389421,5.734744981,-99999.0,'11133222,11111222,99999999' 
TABS,ioos:station:wmo:42050:1,1998-05-04T06:00:00Z,28.8425,-94.2433,2.0,150.5349953,7.867617174,-99999.0,'11133222,11111222,99999999' 
TABS,ioos:station:wmo:42050:1,1998-05-04T06:30:00Z,28.8425,-94.2433,2.0,158.207903,11.23271116,-99999.0,'11111222,11111222,99999999' 
TABS,ioos:station:wmo:42050:1,1998-05-04T07:00:00Z,28.8425,-94.2433,2.0,161.172454,13.85110104,-99999.0,'11111222,11111222,99999999' 
TABS,ioos:station:wmo:42050:1,1998-05-04T07:30:00Z,28.8425,-94.2433,2.0,168.7012607,19.75281752,-99999.0,'11111222,11111222,99999999' 
TABS,ioos:station:wmo:42050:1,1998-05-04T08:00:00Z,28.8425,-94.2433,2.0,170.3888567,19.64574509,-99999.0,'11111222,11111222,99999999' 
TABS,ioos:station:wmo:42050:1,1998-05-04T08:30:00Z,28.8425,-94.2433,2.0,179.0385434,17.8825166,-99999.0,'11111222,11111222,99999999' 
TABS,ioos:station:wmo:42050:1,1998-05-04T09:00:00Z,28.8425,-94.2433,2.0,187.7096636,17.74037204,-99999.0,'11111222,11111222,99999999' 
TABS,ioos:station:wmo:42050:1,1998-05-04T09:30:00Z,28.8425,-94.2433,2.0,191.827467,18.88087127,-99999.0,'11111222,11111222,99999999' 
TABS,ioos:station:wmo:42050:1,1998-05-04T10:00:00Z,28.8425,-94.2433,2.0,197.0283743,19.32733815,-99999.0,'11111222,11111222,99999999' 
TABS,ioos:station:wmo:42050:1,1998-05-04T10:30:00Z,28.8425,-94.2433,2.0,200.0599792,16.50107875,-99999.0,'11111222,11111222,99999999' 
TABS,ioos:station:wmo:42050:1,1998-05-04T11:00:00Z,28.8425,-94.2433,2.0,196.8097227,13.38181602,-99999.0,'11111222,11111222,99999999' 
TABS,ioos:station:wmo:42050:1,1998-05-04T11:30:00Z,28.8425,-94.2433,2.0,198.4346953,14.13538114,-99999.0,'11111222,11111222,99999999' 
TABS,ioos:station:wmo:42050:1,1998-05-04T12:00:00Z,28.8425,-94.2433,2.0,198.1125009,16.30812374,-99999.0,'11111222,11111222,99999999' 
TABS,ioos:station:wmo:42050:1,1998-05-04T12:30:00Z,28.8425,-94.2433,2.0,205.6344845,16.52672079,-99999.0,'11111222,11111222,99999999' 
TABS,ioos:station:wmo:42050:1,1998-05-04T13:00:00Z,28.8425,-94.2433,2.0,212.6298669,17.69241645,-99999.0,'11111222,11111222,99999999' 
TABS,ioos:station:wmo:42050:1,1998-05-04T13:30:00Z,28.8425,-94.2433,2.0,224.9996843,16.43316159,-99999.0,'11111222,11111222,99999999' 
TABS,ioos:station:wmo:42050:1,1998-05-04T14:00:00Z,28.8425,-94.2433,2.0,221.8242998,15.19076364,-99999.0,'11111222,11111222,99999999' 
TABS,ioos:station:wmo:42050:1,1998-05-04T14:30:00Z,28.8425,-94.2433,2.0,227.5972862,18.56648863,-99999.0,'11111222,11111222,99999999' 
TABS,ioos:station:wmo:42050:1,1998-05-04T15:00:00Z,28.8425,-94.2433,2.0,226.6607738,21.71023031,-99999.0,'11111222,11111222,99999999' 
TABS,ioos:station:wmo:42050:1,1998-05-04T15:30:00Z,28.8425,-94.2433,2.0,219.8087699,20.94555323,-99999.0,'11111222,11111222,99999999' 
TABS,ioos:station:wmo:42050:1,1998-05-04T16:00:00Z,28.8425,-94.2433,2.0,220.5150888,18.81006114,-99999.0,'11111222,11111222,99999999' 